KMRYKHAF

Guest
Details From KMRY - Monterey Peninsula
To KHAF - HALF MOON BAY
Flight Number -
Tags decoded
Created
Modified
Stats Distance 69 nm / 127 km
Max Altitude 0 ft / 0 m
Waypoints 4
Social Downloads 0
Likes 0
Share VATSIM

Download

Looking for another format? Having issues loading an existing format? Contact us
Advertisement - Login to hide

Notes

Requested: KMRY TAILS HOMKA KHAF

Route

KMRY TAILS HOMKA KHAF

ID Type Via Altitude Latitude Longitude Leg Dist Tot Dist Heading (true) Name
O KMRY APT - 0 ft / 0 m 36.58692˚ -121.84193˚ - 0 nm - Monterey Peninsula
TAILS FIX - 0 ft / 0 m 37.27286˚ -122.52036˚ 52 nm 52 nm 322° / 321° -
HOMKA FIX - 0 ft / 0 m 37.33567˚ -122.44389˚ 5 nm 57 nm 44° / 44° -
O KHAF APT - 0 ft / 0 m 37.51343˚ -122.50116˚ 11 nm 68 nm 346° / 346° HALF MOON BAY

Altitude Profile

Advertisement - Login to hide

KMRY

Details ICAO KMRY (MRY)
Name Monterey Peninsula
Region United States
Timezone America/Los_Angeles (UTC-7.0)
Stats Elevation 257 ft / 78 m (AMSL)
Location 36.586916° -121.841927°
Runways 2
Magnetic Variation 13.118° E

METAR

KMRY 232154Z 22009G14KT 10SM OVC021 16/10 A2999 RMK AO2 SLP168 T01560100

Decode

TAF

TAF AMD KMRY 231838Z 2319/2418 26005KT P6SM BKN015 BKN025 TEMPO 2319/2321 SCT015 BKN025 FM232100 26012KT P6SM SCT015 BKN030 FM240000 24013KT P6SM BKN020 FM240200 24008KT P6SM OVC015 FM240500 20003KT P6SM OVC007 FM241500 VRB03KT P6SM BKN015

Decode

Departure Runways

ID Width Length Bearing (true) Bearing (mag) Surface Threshold Offset Overrun Length
10L 59 ft / 18 m 3,508 ft / 1,069 m 112.85° 99.73° Asphalt 0 ft / 0 m 230 ft / 70 m
10R 151 ft / 46 m 7,605 ft / 2,318 m 112.84° 99.72° Asphalt 0 ft / 0 m 174 ft / 53 m
28L 151 ft / 46 m 7,605 ft / 2,318 m 292.85° 279.73° Asphalt 1,001 ft / 305 m 190 ft / 58 m
28R 59 ft / 18 m 3,508 ft / 1,069 m 292.85° 279.73° Asphalt 0 ft / 0 m 0 ft / 0 m

KHAF

Details ICAO KHAF
Name HALF MOON BAY
Region United States
Timezone America/Los_Angeles (UTC-7.0)
Stats Elevation 66 ft / 20 m (AMSL)
Location 37.513435° -122.501163°
Runways 1
Magnetic Variation 13.418° E

METAR

KHAF 232235Z AUTO 27007KT 9SM FEW010 OVC024 14/11 A3000 RMK AO2

Decode

TAF

Not found

Destination Runways

ID Width Length Bearing (true) Bearing (mag) Surface Threshold Offset Overrun Length
12 151 ft / 46 m 5,005 ft / 1,525 m 137.06° 123.64° Asphalt 764 ft / 233 m 0 ft / 0 m
30 151 ft / 46 m 5,005 ft / 1,525 m 317.06° 303.64° Asphalt 764 ft / 233 m 0 ft / 0 m

Popular Alternatives